Flag for Germany Weather past 2 weeks in Hofheim am Taunus, Hesse, Germany

Now
63 °F

Sunny.


Feels Like: 63 °F
Forecast: 59 / 73 °F
Wind: 6 mph from East

Location: Wiesbaden Airport

Current Time: Sep 16, 2014 at 9:52:57 AM

Latest Report: Sep 16, 2014 at 8:58 AM


Visibility: N/A

Pressure: 30.00 "Hg

Humidity: 85%

Dew point: 58 °F

Location of Hofheim am TaunusLocation

Historic Weather in Hofheim am Taunus — Graph

°F

Hofheim am Taunus temperature yesterday

Maximum temperature yesterday: 69 °F (at 2:58 PM)
Minimum temperature yesterday: 61 °F (at 12:58 AM)
Average temperature yesterday: 65 °F

Past Weeks' High & Low Weather Summary

 TemperatureHumidityPressure
High79 °F (Sep 5, 4:58 PM)100% (Sep 5, 7:58 AM)30.20 "Hg (Sep 5, 7:58 AM)
Low52 °F (Sep 11, 2:58 AM)38% (Sep 9, 4:58 PM)29.86 "Hg (Sep 6, 5:58 PM)
Average63 °F77%30.06 "Hg
* Reported Sep 1 8:58 AM — Sep 16 8:58 AM, Hofheim am Taunus, Weather by CustomWeather, © 2014

Note: Actual official high and low records may vary slightly from our data, if they occured in-between our weather recording intervals... More about our weather records

Advertising

Hofheim am Taunus weather history for previous 24 hours

 ConditionsComfort  
Time TempWeatherWind HumidityBarometerVisibility
8:58 AM
Sep 16
63 °FSunny.6 mph85%30.00 "HgN/A
7:58 AM60 °FClear.6 mph92%30.00 "HgN/A
6:58 AM57 °FClear.6 mph94%30.00 "HgN/A
5:58 AM59 °FFog.3 mph94%29.99 "Hg4 mi
4:58 AM57 °FFog.No wind94%29.99 "Hg3 mi
3:58 AM61 °FFog.6 mph88%29.99 "Hg2 mi
2:58 AM58 °FFog.2 mph95%29.99 "Hg2 mi
1:58 AM61 °FFog.No wind94%30.00 "Hg2 mi
1:03 AM64 °FOvercast.3 mph83%30.00 "Hg2 mi
12:58 AM64 °FOvercast.3 mph85%29.99 "Hg3 mi
11:58 PM
Sep 15
63 °FPassing clouds.5 mph85%30.00 "Hg3 mi
10:58 PM64 °FPassing clouds.5 mph83%29.99 "HgN/A
9:58 PM64 °FPassing clouds.No wind83%30.00 "Hg6 mi
8:58 PM64 °FPassing clouds.No wind83%30.01 "HgN/A
7:58 PM66 °FOvercast.No wind78%30.00 "HgN/A
6:58 PM68 °FOvercast.6 mph73%29.98 "HgN/A
5:58 PM68 °FMostly cloudy.6 mph73%30.00 "HgN/A
4:58 PM68 °FOvercast.6 mph73%29.99 "HgN/A
3:58 PM68 °FOvercast.7 mph73%29.99 "HgN/A
2:58 PM69 °FOvercast.7 mph73%30.01 "HgN/A
2:04 PM68 °FCloudy.6 mph73%30.02 "HgN/A
2:02 PM68 °FMostly cloudy.6 mph73%30.02 "HgN/A
12:58 PM67 °FMostly cloudy.8 mph78%30.04 "HgN/A
11:58 AM66 °FPartly sunny.9 mph78%30.04 "HgN/A
10:58 AM66 °FScattered clouds.8 mph78%30.04 "HgN/A
9:58 AM64 °FOvercast.6 mph80%30.04 "HgN/A
Weather by CustomWeather, © 2014

See weather overviewHow to use our weather pages